SCP
0 0 0 0 0 0 0 0 0 0 0 0 0 0 0 0 0 0 0 0 0 0 0 0 0 0 0 0 0 0 0 0 0 0 0 0 0 0 0 0 0 0 0 0
0 0 0 0 0 0 0 0 0 0 0 0 0 0 0 0 0 0 0 0 0 0 0 0 0 0 0 0 0 0 0 0 0 0 0 0 0 0 0 0 0 0 0 0
0 0 0 0 0 0 0 0 0 0 0 0 0 0 0 0 0 0 0 0 0 0 0 0 0 0 0 0 0 0 0 0 0 0 0 0 0 0 0 0 0 0 0 0
0 0 0 0 0 0 0 0 0 0 0 0 0 0 0 0 0 0 0 0 0 0 0 0 0 0 0 0 0 0 0 0 0 0 0 0 0 0 0 0 0 0 0 0
0 0 0 0 0 0 0 0 0 0 0 0 0 0 0 0 0 0 0 0 0 0 0 0 0 0 0 0 0 0 0 0 0 0 0 0 0 0 0 0 0 0 0 0
0 0 0 0 0 0 0 0 0 0 0 0 0 0 0 0 0 0 0 0 0 0 0 0 0 0 0 0 0 0 0 0 0 0 0 0 0 0 0 0 0 0 0 0
0 0 0 0 0 0 0 0 0 0 0 0 0 0 0 0 0 0 0 0 0 0 0 0 0 0 0 0 0 0 0 0 0 0 0 0 0 0 0 0 0 0 0 0
0 0 0 0 0 0 0 0 0 0 0 0 0 0 0 0 0 0 0 0 0 0 0 0 0 0 0 0 0 0 0 0 0 0 0 0 0 0 0 0 0 0 0 0
0 0 0 0 0 0 0 0 0 0 0 0 0 0 0 0 0 0 0 0 0 0 0 0 0 0 0 0 0 0 0 0 0 0 0 0 0 0 0 0 0 0 0 0
0 0 0 0 0 0 0 0 0 0 0 0 0 0 0 0 0 0 0 0 0 0 0 0 0 0 0 0 0 0 0 0 0 0 0 0 0 0 0 0 0 0 0 0
0 0 0 0 0 0 0 0 0 0 0 0 0 0 0 0 0 0 0 0 0 0 0 0 0 0 0 0 0 0 0 0 0 0 0 0 0 0 0 0 0 0 0 0
0 0 0 0 0 0 0 0 0 0 0 0 0 0 0 0 0 0 0 0 0 0 0 0 0 0 0 0 0 0 0 0 0 0 0 0 0 0 0 0 0 0 0 0
0 0 0 0 0 0 0 0 0 0 0 0 0 0 0 0 0 0 0 0 0 0 0 0 0 0 0 0 0 0 0 0 0 0 0 0 0 0 0 0 0 0 0 0
0 0 0 0 0 0 0 0 0 0 0 0 0 0 0 0 0 0 0 0 0 0 0 0 0 0 0 0 0 0 0 0 0 0 0 0 0 0 0 0 0 0 0 0
0 0 0 0 0 0 0 0 0 0 0 0 0 0 0 0 0 0 0 0 0 0 0 0 0 0 0 0 0 0 0 0 0 0 0 0 0 0 0 0 0 0 0 0
0 0 0 0 0 0 0 0 0 0 0 0 0 0 0 0 0 0 0 0 0 0 0 0 0 0 0 0 0 0 0 0 0 0 0 0 0 0 0 0 0 0 0 0
0 0 0 0 0 0 0 0 0 0 0 0 0 0 0 0 0 0 0 0 0 0 0 0 0 0 0 0 0 0 0 0 0 0 0 0 0 0 0 0 0 0 0 0
0 0 0 0 0 0 0 0 0 0 0 0 0 0 0 0 0 0 0 0 0 0 0 0 0 0 0 0 0 0 0 0 0 0 0 0 0 0 0 0 0 0 0 0
0 0 0 0 0 0 0 0 0 0 0 0 0 0 0 0 0 0 0 0 0 0 0 0 0 0 0 0 0 0 0 0 0 0 0 0 0 0 0 0 0 0 0 0
0 0 0 0 0 0 0 0 0 0 0 0 0 0 0 0 0 0 0 0 0 0 0 0 0 0 0 0 0 0 0 0 0 0 0 0 0 0 0 0 0 0 0 0
0 0 0 0 0 0 0 0 0 0 0 0 0 0 0 0 0 0 0 0 0 0 0 0 0 0 0 0 0 0 0 0 0 0 0 0 0 0 0 0 0 0 0 0
0 0 0 0 0 0 0 0 0 0 0 0 0 0 0 0 0 0 0 0 0 0 0 0 0 0 0 0 0 0 0 0 0 0 0 0 0 0 0 0 0 0 0 0
0 0 0 0 0 0 0 0 0 0 0 0 0 0 0 0 0 0 0 0 0 0 0 0 0 0 0 0 0 0 0 0 0 0 0 0 0 0 0 0 0 0 0 0
0 0 0 0 0 0 0 0 0 0 0 0 0 0 0 0 0 0 0 0 0 0 0 0 0 0 0 0 0 0 0 0 0 0 0 0 0 0 0 0 0 0 0 0
0 0 0 0 0 0 0 0 0 0 0 0 0 0 0 0 0 0 0 0 0 0 0 0 0 0 0 0 0 0 0 0 0 0 0 0 0 0 0 0 0 0 0 0
0 0 0 0 0 0 0 0 0 0 0 0 0 0 0 0 0 0 0 0 0 0 0 0 0 0 0 0 0 0 0 0 0 0 0 0 0 0 0 0 0 0 0 0
0 0 0 0 0 0 0 0 0 0 0 0 0 0 0 0 0 0 0 0 0 0 0 0 0 0 0 0 0 0 0 0 0 0 0 0 0 0 0 0 0 0 0 0
Wind_Speed
7 5 4 6 7 7 9 8 9 8 8 10 7 6 5 4 4 3 3 3 2 2 2 2 3 3 3 3 3 3 3 4 4 5 5 5 5 6 5 5 6 6 6 6
5 4 4 7 9 9 9 8 9 8 12 9 6 3 4 4 3 4 4 3 3 3 2 3 3 3 4 4 4 4 4 5 5 5 5 5 5 6 5 5 6 6 6 6
5 3 3 8 9 9 6 7 7 11 11 5 4 4 5 5 4 5 4 4 3 3 3 3 3 3 3 4 4 4 4 5 5 5 6 6 6 6 6 6 6 6 6 6
2 2 7 8 2 5 6 7 8 7 7 5 6 5 5 5 5 5 4 3 4 3 4 3 3 3 3 4 4 4 5 5 6 5 6 6 6 6 6 6 6 6 6 6
2 3 8 8 3 4 5 7 7 9 9 6 4 4 4 4 3 4 4 4 4 4 3 3 3 3 3 4 4 4 5 6 6 6 6 6 7 7 6 6 6 6 6 6
2 3 7 7 3 1 3 6 4 5 6 4 1 3 6 3 2 3 3 3 3 2 2 2 3 2 2 4 4 5 6 6 6 6 6 6 7 7 6 6 6 6 6 5
5 6 10 6 2 3 3 6 2 3 4 3 4 6 5 4 4 3 3 3 2 2 2 3 2 2 3 4 5 6 6 6 6 6 6 6 6 6 6 6 6 6 6 6
4 5 10 2 4 5 6 2 1 2 3 4 5 5 4 4 4 3 3 3 2 2 2 3 2 2 3 5 5 5 5 5 6 6 5 5 5 6 5 5 5 5 5 5
9 9 4 4 5 4 2 3 3 3 4 4 4 4 4 4 3 3 3 3 2 2 2 3 2 2 3 5 5 5 5 5 6 6 5 5 5 6 5 4 4 4 4 4
5 7 5 4 5 4 3 4 4 4 4 3 4 4 4 4 3 3 3 3 2 2 2 4 4 3 3 4 4 4 5 5 5 5 5 5 4 5 4 4 4 4 4 4
6 6 6 5 5 6 5 5 4 4 3 4 4 4 3 3 4 3 3 3 2 2 3 4 4 4 5 4 3 4 4 5 5 4 5 5 5 4 5 5 5 5 4 4
7 6 5 6 4 4 4 5 4 4 4 3 3 3 3 3 3 3 3 3 3 3 3 4 4 5 5 4 3 3 4 4 4 4 4 4 5 5 7 7 9 9 9 8
6 4 5 6 4 3 3 4 3 3 3 3 2 2 2 3 3 3 3 3 4 4 4 4 4 5 5 4 4 3 4 5 4 4 4 4 5 5 6 7 9 10 11 11
4 2 3 3 3 3 2 2 2 2 2 2 2 2 2 2 2 3 4 4 4 4 4 4 4 5 5 4 4 4 4 5 5 4 4 4 4 5 5 6 6 6 8 11
4 3 4 3 2 2 2 2 2 2 2 3 2 2 2 2 3 4 4 4 3 3 4 4 5 6 5 4 4 4 4 4 4 4 4 4 4 5 4 5 5 6 5 7
3 2 2 2 3 3 2 2 3 3 3 3 3 3 3 3 4 4 4 3 3 4 4 5 6 6 5 4 4 4 4 7 6 4 4 4 4 4 4 5 5 5 5 5
2 3 3 3 4 4 3 3 4 4 3 4 4 4 3 3 3 4 4 4 4 5 5 5 6 5 4 4 4 4 4 5 7 5 4 4 4 4 4 4 5 5 5 6
3 3 3 4 4 4 4 4 3 4 4 4 3 3 3 3 4 5 5 4 4 4 5 5 5 5 4 4 4 3 3 4 4 4 4 4 4 4 4 4 5 5 5 6
3 3 3 3 3 3 3 4 4 4 4 3 2 3 4 4 4 4 4 3 4 5 5 5 7 5 4 5 5 3 3 4 4 4 4 6 5 4 4 4 4 5 5 4
3 3 3 3 3 2 3 3 3 3 3 2 2 3 4 4 4 3 3 4 4 4 6 6 5 4 4 5 5 3 3 4 4 4 4 4 4 4 4 4 4 4 4 4
3 3 3 3 3 3 3 3 2 3 3 2 3 3 4 4 3 3 3 4 5 5 5 6 4 4 4 4 5 3 3 3 4 3 4 4 4 4 4 4 4 4 4 4
3 3 3 3 3 3 3 3 2 3 3 3 3 3 3 4 4 3 3 4 5 6 4 3 3 5 6 5 2 3 3 4 4 3 3 3 4 4 4 4 4 4 4 4
3 3 3 3 3 3 4 3 3 3 3 4 4 4 4 4 3 3 4 4 3 6 4 3 6 8 8 3 2 3 3 4 4 3 3 4 4 4 4 5 4 4 4 4
2 2 3 3 2 2 4 4 4 3 3 4 4 4 3 3 3 3 3 6 6 6 3 5 8 8 6 3 3 3 3 4 4 4 3 3 3 3 3 4 4 4 4 4
2 2 2 2 2 3 4 4 4 4 4 3 4 4 3 2 3 3 3 3 5 5 3 5 8 8 4 3 3 4 4 4 4 3 3 3 3 3 3 3 3 4 4 4
2 2 2 3 3 3 3 3 3 3 3 3 3 3 3 2 2 2 2 3 4 5 4 3 4 4 3 3 4 4 4 5 5 4 4 3 3 3 3 3 4 4 4 4
2 2 2 2 2 2 2 2 3 4 3 3 4 3 3 2 2 2 3 3 3 3 3 3 3 3 3 3 4 4 4 4 4 4 4 3 3 3 3 4 4 4 4 4
Wind_Direction
250 249 221 234 234 207 206 210 219 245 252 265 268 268 277 278 286 288 292 297 296 300 304 316 318 315 316 317 321 323 320 313 306 303 304 301 299 291 286 283 281 274 271 269
276 261 242 260 252 226 223 226 236 259 269 264 276 278 285 279 278 285 285 285 291 301 303 303 304 309 317 316 315 321 317 310 311 315 312 308 304 300 296 290 286 280 271 267
269 294 332 271 239 208 210 216 204 231 249 271 288 276 266 263 265 264 264 272 279 284 278 282 286 291 297 302 312 318 314 313 315 315 312 310 309 309 304 298 295 288 278 270
266 2 247 249 218 186 204 233 220 237 260 262 256 270 268 245 243 257 264 267 274 279 282 286 289 297 301 308 315 316 317 316 315 314 311 310 308 305 302 297 294 288 287 281
201 248 273 286 246 179 197 261 233 233 254 264 281 309 288 251 225 232 245 256 264 262 266 279 290 299 308 312 315 315 313 312 311 311 310 310 308 305 302 300 297 291 290 286
188 229 253 262 275 217 127 279 255 213 243 263 308 300 279 279 271 261 264 266 271 278 286 286 293 301 302 304 310 306 304 305 306 306 304 304 303 303 302 300 298 296 297 293
211 236 263 272 275 109 162 254 257 212 233 233 226 239 272 295 288 275 272 278 282 275 277 275 285 295 293 297 295 297 300 303 306 306 303 299 301 302 302 301 301 297 292 292
180 216 255 239 136 187 230 281 268 252 252 253 260 273 282 289 290 292 290 291 283 278 288 290 283 287 295 296 299 304 305 306 307 308 308 311 311 310 307 302 300 298 296 296
194 216 248 181 208 245 275 268 269 263 268 266 272 277 286 293 292 295 294 298 294 280 301 307 298 280 283 294 305 310 311 310 309 312 313 312 311 311 311 307 301 300 300 302
250 262 262 257 272 284 269 267 276 273 272 263 266 275 281 288 297 301 304 302 301 307 304 302 303 300 284 292 303 306 306 308 310 312 314 314 310 307 306 304 301 297 297 299
255 277 299 279 259 269 281 282 283 281 265 256 259 271 268 277 284 286 295 299 293 279 278 287 298 299 299 300 304 306 304 305 308 309 307 308 306 300 302 292 299 299 291 291
242 246 237 266 277 272 270 272 268 274 282 271 245 253 263 269 273 275 281 286 287 282 283 289 294 297 298 298 294 297 305 307 306 304 303 305 306 306 303 302 308 308 309 304
252 267 248 271 287 282 268 276 279 267 261 276 274 254 255 267 276 277 282 283 278 278 281 286 292 295 298 299 299 292 289 294 295 297 299 301 303 305 309 310 310 310 314 314
274 289 280 275 277 293 293 296 302 304 291 273 277 287 278 278 283 281 281 282 281 282 284 286 290 293 296 298 297 294 289 292 297 289 291 293 295 296 299 305 312 312 311 316
277 245 249 279 311 324 326 334 335 322 324 324 313 298 286 284 284 284 286 291 293 290 290 293 292 294 299 298 298 294 293 292 292 290 288 287 290 291 293 296 298 302 307 312
303 313 300 296 297 307 317 310 299 294 301 306 305 298 287 278 280 285 289 287 285 286 288 289 288 291 298 298 300 296 291 299 306 298 293 292 290 290 291 292 294 299 303 305
304 304 300 300 295 293 286 280 276 277 281 283 286 294 298 298 298 298 298 295 282 278 281 283 287 295 298 294 291 289 290 295 304 303 293 288 286 285 287 288 290 293 294 302
252 264 265 265 271 278 285 288 284 280 276 276 286 293 292 288 285 288 292 300 300 297 294 291 292 296 295 292 289 285 288 290 292 291 292 291 289 284 284 286 289 293 298 306
294 290 289 288 282 276 279 283 285 285 285 283 279 280 279 278 277 284 292 298 299 301 305 304 308 310 300 297 305 287 288 291 294 293 294 299 303 300 298 294 293 293 297 303
319 319 313 309 306 291 283 287 287 289 288 280 279 287 292 291 287 288 290 284 275 273 289 302 304 299 297 296 307 295 290 288 289 293 295 295 297 299 297 296 297 296 297 298
311 314 314 310 308 305 292 286 283 284 289 282 269 271 278 288 291 286 287 291 292 296 299 307 309 301 298 305 309 302 294 291 290 289 292 293 295 297 297 297 297 297 297 298
301 303 302 303 305 308 308 301 288 286 290 288 282 280 283 289 294 289 272 268 288 308 315 303 301 305 312 319 313 305 300 297 296 293 290 291 293 294 296 297 296 295 294 294
296 296 298 298 295 298 308 308 296 286 282 281 281 279 274 274 274 278 291 293 296 307 315 302 311 318 328 338 321 312 309 307 304 300 295 293 292 292 294 296 297 298 298 296
301 304 303 306 305 308 309 306 304 295 284 282 281 276 273 280 284 270 272 297 308 313 316 315 323 328 340 341 323 316 311 308 306 303 302 301 301 299 298 299 300 300 298 296
299 299 304 311 305 295 295 304 308 305 300 295 296 292 281 263 267 286 292 293 303 316 318 320 326 332 339 325 319 314 310 307 307 308 306 303 302 303 305 306 304 302 301 297
300 296 289 283 281 291 302 305 303 303 304 304 305 304 301 294 285 288 295 297 299 313 318 312 313 320 320 316 314 313 312 314 319 319 313 308 304 303 303 303 302 298 296 295
318 313 311 312 309 306 303 298 297 299 300 296 301 308 310 310 309 308 308 309 310 311 311 310 309 309 312 315 315 315 314 313 312 309 308 304 301 299 300 299 299 299 298 297